Location: Kellogg
(38.0159°N, 90.0546°W)
Time: 21:50:25
(UTC+00:00)

ACS3 Solar Sail - Pass Details

Date: 23 August 2024
Orbit: 981 x 1029 km, 97.4° (Epoch: 07 September)

Event Time Altitude Azimuth Distance (km) Brightness Sun altitude
Exits shadow 01:00:44 - 108° (ESE) 3,283 3.8 -4.1°
Reaches altitude 10° 01:02:42 10° 95° (E) 2,813 3.6 -4.5°
Maximum altitude 01:06:12 16° 61° (ENE) 2,436 3.5 -5.2°
Drops below altitude 10° 01:09:43 10° 27° (NNE) 2,838 4.2 -5.8°
Sets 01:13:21 0° 7° (N) 3,801 5.1 -6.5°
